EW9136 Weather Reports


Display with metric or nautical units.
time (UTC)temp
F
wind
direction
speed
MPH
gust
MPH
rain 1hr
in
rain 24hr
in
rain mn
in
humidity
%
barometer
mb
20260510074526 48 15 11.0 16.0 0.00 0.04 0.00 75 1022.0
20260510073037 48 36 11.0 20.0 0.00 0.04 0.00 73 1022.0
20260510071520 47 28 12.0 19.0 0.00 0.04 0.00 77 1021.8
20260510070019 46 21 14.0 22.0 0.00 0.04 0.00 78 1021.7
20260510064518 46 30 13.0 20.0 0.00 0.04 0.00 77 1021.7
20260510063018 46 40 11.0 17.0 0.00 0.04 0.00 79 1021.7
20260510061515 45 356 10.0 17.0 0.00 0.04 0.00 81 1021.6
20260510060022 45 30 6.0 17.0 0.00 0.04 0.00 83 1021.7
20260510054510 44 15 8.0 13.0 0.00 0.04 0.00 84 1021.7
20260510053006 43 20 7.0 12.0 0.00 0.04 0.00 86 1021.9
20260510051505 42 31 6.0 12.0 0.00 0.04 0.00 87 1022.0
20260510050003 41 50 6.0 10.0 0.00 0.04 0.00 88 1022.1
20260510044503 41 32 4.0 8.0 0.00 0.04 0.00 88 1022.3
20260510043002 41 21 2.0 9.0 0.00 0.04 0.00 87 1022.3
20260510041609 41 27 4.0 12.0 0.00 0.04 0.00 87 1022.3
20260510040110 41 29 4.0 9.0 0.00 0.04 0.00 87 1022.5
20260510034556 42 20 5.0 12.0 0.00 0.04 0.00 86 1022.5
20260510033100 43 24 7.0 13.0 0.00 0.04 0.00 87 1022.5
20260510031555 43 29 8.0 13.0 0.00 0.04 0.00 87 1022.6
20260510030058 43 56 5.0 14.0 0.00 0.04 0.00 87 1022.5
20260510024552 43 23 8.0 12.0 0.00 0.04 0.00 87 1022.5
20260510023050 43 40 9.0 16.0 0.00 0.04 0.00 88 1022.5
20260510021637 42 15 6.0 13.0 0.00 0.04 0.00 88 1022.4
20260510020049 42 38 5.0 11.0 0.00 0.04 0.00 88 1022.3
20260510014554 43 44 6.0 13.0 0.00 0.04 0.00 88 1022.2
20260510013146 44 21 7.0 14.0 0.00 0.04 0.00 89 1022.2
20260510011542 44 33 6.0 12.0 0.00 0.04 0.00 89 1022.3
20260510010050 44 30 6.0 13.0 0.00 0.04 0.00 89 1022.4
20260510004541 43 15 8.0 14.0 0.00 0.04 0.00 88 1022.4
20260510003038 44 26 12.0 20.0 0.00 0.04 0.00 88 1022.5
20260510001535 44 46 9.0 16.0 0.00 0.04 0.00 89 1022.6
20260510000033 44 15 10.0 18.0 0.00 0.04 0.04 89 1022.6
20260509234533 44 39 10.0 18.0 0.00 0.04 0.04 90 1022.5
20260509233034 45 56 12.0 21.0 0.00 0.04 0.04 90 1022.5
20260509231528 45 32 13.0 18.0 0.00 0.04 0.04 91 1022.5
20260509230036 45 52 8.0 17.0 0.00 0.04 0.04 91 1022.5
20260509224527 45 32 8.0 14.0 0.00 0.04 0.04 92 1022.4
20260509223028 45 15 8.0 14.0 0.00 0.04 0.04 92 1022.5
20260509221527 45 10 8.0 14.0 0.00 0.04 0.04 92 1022.6
20260509220027 45 15 8.0 13.0 0.00 0.04 0.04 92 1022.8
20260509214525 45 1 8.0 15.0 0.00 0.04 0.04 93 1022.7
20260509213025 45 29 7.0 13.0 0.01 0.04 0.04 93 1022.7
20260509211523 45 44 6.0 14.0 0.01 0.04 0.04 94 1022.6
20260509210023 45 39 9.0 14.0 0.01 0.04 0.04 94 1022.6
20260509204521 45 25 9.0 14.0 0.01 0.04 0.04 94 1022.4
20260509203025 45 43 10.0 16.0 0.00 0.03 0.03 95 1022.3
20260509201518 44 27 12.0 17.0 0.00 0.03 0.03 95 1022.3
20260509200018 45 32 11.0 20.0 0.00 0.03 0.03 95 1022.4
20260509194523 45 52 13.0 22.0 0.00 0.03 0.03 95 1022.1
20260509193022 45 38 10.0 20.0 0.01 0.03 0.03 95 1022.0
20260509191510 45 25 11.0 18.0 0.01 0.03 0.03 95 1022.0
20260509190008 45 59 11.0 17.0 0.01 0.03 0.03 95 1021.9
20260509184507 46 28 13.0 19.0 0.01 0.03 0.03 94 1021.9
20260509183009 46 27 12.0 17.0 0.00 0.02 0.02 95 1021.8
20260509181502 46 21 9.0 17.0 0.00 0.02 0.02 94 1021.6
20260509180116 46 23 10.0 18.0 0.00 0.02 0.02 94 1021.5
20260509174557 47 32 12.0 19.0 0.00 0.02 0.02 94 1021.3
20260509173105 47 25 12.0 20.0 0.01 0.02 0.02 94 1021.1
20260509171551 48 34 11.0 21.0 0.01 0.02 0.02 94 1021.0
20260509170049 49 25 11.0 16.0 0.01 0.02 0.02 94 1020.8
20260509164546 50 19 10.0 16.0 0.01 0.02 0.02 93 1020.8
20260509163044 50 26 10.0 17.0 0.00 0.02 0.02 92 1020.6
20260509161553 51 23 9.0 15.0 0.00 0.02 0.02 92 1020.5
20260509160042 51 53 10.0 14.0 0.00 0.02 0.02 91 1020.4
20260509154546 51 31 9.0 15.0 0.00 0.02 0.02 91 1020.4
20260509153053 51 28 6.0 14.0 0.00 0.02 0.02 91 1020.4
20260509151538 51 10 9.0 14.0 0.01 0.02 0.02 92 1020.3
20260509150038 51 30 6.0 13.0 0.02 0.02 0.02 93 1020.4
20260509144543 51 34 7.0 12.0 0.02 0.02 0.02 92 1020.3
20260509143137 51 25 8.0 13.0 0.02 0.02 0.02 92 1020.3
20260509141540 51 34 9.0 13.0 0.01 0.01 0.01 91 1020.1
20260509140047 52 19 7.0 12.0 0.00 0.01 0.00 89 1020.3
20260509134535 53 51 8.0 12.0 0.00 0.01 0.00 87 1020.4
20260509133038 53 15 5.0 10.0 0.00 0.01 0.00 87 1020.4
20260509131534 54 26 7.0 11.0 0.00 0.01 0.00 87 1020.4
20260509130034 53 32 6.0 11.0 0.00 0.01 0.00 87 1020.3
20260509124533 53 21 5.0 10.0 0.00 0.01 0.00 87 1020.4
20260509123032 54 5 5.0 11.0 0.00 0.01 0.00 88 1020.4
20260509121548 53 34 6.0 11.0 0.00 0.01 0.00 89 1020.3
20260509120046 53 42 7.0 11.0 0.00 0.01 0.00 89 1020.3
20260509114545 53 46 8.0 11.0 0.00 0.01 0.00 89 1020.3
20260509113045 53 47 7.0 12.0 0.00 0.01 0.00 89 1020.3
20260509111544 53 49 8.0 11.0 0.00 0.01 0.00 89 1020.4
20260509110044 53 15 6.0 10.0 0.00 0.01 0.00 89 1020.5
20260509104544 53 32 5.0 9.0 0.00 0.01 0.00 89 1020.6
20260509103050 54 75 5.0 9.0 0.00 0.01 0.00 89 1020.5
20260509101541 54 52 4.0 9.0 0.00 0.01 0.00 89 1020.5
20260509100039 54 62 7.0 11.0 0.00 0.01 0.00 90 1020.5
20260509094547 54 46 6.0 11.0 0.00 0.01 0.00 91 1020.3
20260509093039 54 58 6.0 9.0 0.00 0.01 0.00 90 1020.4
20260509091545 54 35 5.0 9.0 0.00 0.01 0.00 90 1020.3
20260509090039 54 30 3.0 5.0 0.00 0.01 0.00 91 1020.2
20260509084534 54 48 3.0 8.0 0.00 0.01 0.00 91 1020.2
20260509083031 54 48 3.0 7.0 0.00 0.01 0.00 90 1020.1
20260509081530 54 28 3.0 6.0 0.00 0.01 0.00 91 1019.9
20260509080027 53 38 4.0 7.0 0.00 0.01 0.00 92 1019.9